Stanton, MN

11:14 AM CDT on May 22, 2017 (GMT -0500)
Stanton

Weather History for KSYN - September, 2012

Change the Weather History Date:

Sunday, September 16, 2012

  Actual Average (KLVN) Record (KLVN)
Temperature  
Mean Temperature 68 °F -  
Max Temperature 79 °F 70 °F 95 °F (1948)
Min Temperature 58 °F 47 °F 35 °F (2014)
Cooling Degree Days 4    
Growing Degree Days 18 (Base 50)    
Moisture  
Dew Point 50 °F    
Average Humidity 53    
Maximum Humidity 75    
Minimum Humidity 34    
Precipitation  
Precipitation 0.00 in - - ()
Sea Level Pressure  
Sea Level Pressure 29.92 in    
Wind  
Wind Speed 8 mph (SW)    
Max Wind Speed 16 mph    
Max Gust Speed 22 mph    
Visibility 10 miles    
Events      
Averages and records for this station are not official NWS values.
T = Trace of Precipitation, MM = Missing Value Source: NWS Daily Summary

Daily Weather History Graph

Daily Weather History Graph

Search for Another Location

Airport or City:

Trip Planner

Search our weather history database for the weather conditions in past years. The results will help you decide how hot, cold, wet, or windy it might be!

Date:

Astronomy

Sep. 16, 2012 Rise Set
Actual Time 6:52 AM CDT 7:19 PM CDT
Civil Twilight 6:23 AM CDT 7:48 PM CDT
Nautical Twilight 5:49 AM CDT 8:23 PM CDT
Astronomical Twilight 5:13 AM CDT 8:58 PM CDT
Moon 7:36 AM CDT (9/16) 7:19 PM CDT (9/16)
Length of Visible Light 13h 25m
Length of Day
12h 27m
New Moon, 0% of the Moon is Illuminated
Sep 16
New Moon
Sep 22
First Quarter
Sep 29
Full
Oct 8
Last Quarter
Oct 15
New

Hourly Weather History & Observations

Time (CDT) Temp. Dew Point Humidity Pressure Visibility Wind Dir Wind Speed Gust Speed Precip Events Conditions
12:12 AM 63.0 °F 44.8 °F 51% 29.99 in 10.0 mi South 5.8 mph - N/A   Clear
12:32 AM 62.1 °F 45.0 °F 53% 29.98 in 10.0 mi South 6.9 mph - N/A   Clear
12:52 AM 61.3 °F 45.1 °F 55% 29.98 in 10.0 mi South 5.8 mph - N/A   Clear
1:13 AM 60.8 °F 45.1 °F 56% 29.99 in 10.0 mi South 4.6 mph - N/A   Clear
1:32 AM 60.1 °F 45.5 °F 59% 29.99 in 10.0 mi South 5.8 mph - N/A   Clear
1:52 AM 58.6 °F 45.7 °F 62% 29.98 in 10.0 mi South 6.9 mph - N/A   Clear
2:13 AM 59.2 °F 45.5 °F 60% 29.98 in 10.0 mi South 8.1 mph - N/A   Clear
2:32 AM 58.3 °F 45.1 °F 62% 29.98 in 10.0 mi SSW 3.5 mph - N/A   Clear
2:52 AM 59.0 °F 44.8 °F 59% 29.97 in 10.0 mi SSW 5.8 mph - N/A   Clear
3:12 AM 60.8 °F 44.4 °F 55% 29.97 in 10.0 mi SSW 6.9 mph - N/A   Clear
3:32 AM 61.5 °F 44.6 °F 54% 29.96 in 10.0 mi SSW 9.2 mph - N/A   Clear
3:52 AM 61.7 °F 44.1 °F 52% 29.97 in 10.0 mi SSW 10.4 mph 17.3 mph N/A   Clear
4:12 AM 61.2 °F 44.2 °F 54% 29.96 in 10.0 mi SSW 8.1 mph - N/A   Clear
4:32 AM 60.8 °F 44.6 °F 55% 29.96 in 10.0 mi SSW 9.2 mph 16.1 mph N/A   Clear
4:52 AM 60.3 °F 45.1 °F 57% 29.96 in 10.0 mi SSW 11.5 mph - N/A   Clear
5:12 AM 60.6 °F 45.7 °F 58% 29.96 in 10.0 mi SSW 11.5 mph 16.1 mph N/A   Clear
5:32 AM 60.3 °F 46.2 °F 60% 29.95 in 10.0 mi SSW 9.2 mph 16.1 mph N/A   Clear
5:52 AM 60.1 °F 46.6 °F 61% 29.95 in 10.0 mi SSW 9.2 mph - N/A   Clear
6:12 AM 60.3 °F 47.5 °F 63% 29.96 in 10.0 mi SSW 10.4 mph - N/A   Clear
6:52 AM 60.8 °F 49.8 °F 67% 29.95 in 10.0 mi South 8.1 mph - N/A   Clear
7:12 AM 60.8 °F 50.4 °F 68% 29.94 in 10.0 mi South 9.2 mph - N/A   Clear
7:52 AM 61.0 °F 51.6 °F 71% 29.93 in 10.0 mi South 9.2 mph - N/A   Clear
8:12 AM 61.0 °F 51.3 °F 70% 29.93 in 10.0 mi South 9.2 mph - N/A   Clear
8:32 AM 63.0 °F 53.1 °F 70% 29.92 in 10.0 mi SSW 6.9 mph - N/A   Clear
8:52 AM 64.9 °F 54.1 °F 68% 29.93 in 10.0 mi SSW 6.9 mph - N/A   Clear
9:12 AM 67.3 °F 54.5 °F 63% 29.93 in 10.0 mi SSW 15.0 mph 21.9 mph N/A   Clear
9:32 AM 68.4 °F 54.0 °F 60% 29.94 in 10.0 mi SW 16.1 mph 20.7 mph N/A   Clear
9:52 AM 68.9 °F 53.8 °F 58% 29.93 in 10.0 mi SSW 13.8 mph 20.7 mph N/A   Clear
10:12 AM 70.0 °F 54.0 °F 57% 29.94 in 10.0 mi SW 13.8 mph 18.4 mph N/A   Clear
10:32 AM 70.0 °F 53.1 °F 55% 29.93 in 10.0 mi SW 15.0 mph - N/A   Clear
10:52 AM 71.6 °F 52.9 °F 52% 29.93 in 10.0 mi SW 15.0 mph - N/A   Clear
11:12 AM 71.8 °F 52.2 °F 50% 29.93 in 10.0 mi SW 10.4 mph 18.4 mph N/A   Clear
11:32 AM 72.7 °F 52.7 °F 49% 29.93 in 10.0 mi SW 11.5 mph 19.6 mph N/A   Clear
11:52 AM 72.9 °F 52.3 °F 48% 29.92 in 10.0 mi WSW 10.4 mph 17.3 mph N/A   Clear
12:12 PM 73.4 °F 52.5 °F 48% 29.92 in 10.0 mi SW 12.7 mph 17.3 mph N/A   Clear
12:32 PM 74.1 °F 52.2 °F 46% 29.92 in 10.0 mi SW 10.4 mph - N/A   Clear
12:52 PM 74.7 °F 52.7 °F 46% 29.91 in 10.0 mi SSW 11.5 mph 17.3 mph N/A   Clear
1:12 PM 75.4 °F 51.3 °F 43% 29.90 in 10.0 mi SW 12.7 mph - N/A   Clear
1:32 PM 76.3 °F 50.9 °F 41% 29.90 in 10.0 mi SW 12.7 mph - N/A   Clear
1:52 PM 77.2 °F 51.1 °F 40% 29.89 in 10.0 mi WSW 12.7 mph 16.1 mph N/A   Clear
2:12 PM 77.5 °F 51.8 °F 41% 29.89 in 10.0 mi West 8.1 mph - N/A   Clear
2:32 PM 78.8 °F 51.1 °F 38% 29.88 in 10.0 mi SW 10.4 mph - N/A   Clear
2:52 PM 79.0 °F 51.1 °F 38% 29.88 in 10.0 mi SW 8.1 mph - N/A   Clear
3:12 PM 79.3 °F 50.2 °F 36% 29.88 in 10.0 mi WSW 9.2 mph - N/A   Clear
3:32 PM 79.7 °F 49.8 °F 35% 29.87 in 10.0 mi West 9.2 mph - N/A   Clear
3:52 PM 79.7 °F 50.2 °F 36% 29.86 in 10.0 mi West 8.1 mph - N/A   Clear
4:12 PM 79.9 °F 50.4 °F 36% 29.86 in 10.0 mi West 10.4 mph - N/A   Clear
4:31 PM 79.7 °F 50.4 °F 36% 29.86 in 10.0 mi West 8.1 mph - N/A   Clear
4:52 PM 79.7 °F 50.4 °F 36% 29.86 in 10.0 mi WSW 8.1 mph - N/A   Clear
5:12 PM 79.9 °F 49.5 °F 34% 29.86 in 10.0 mi West 8.1 mph - N/A   Clear
5:31 PM 78.8 °F 50.0 °F 36% 29.86 in 10.0 mi WNW 5.8 mph - N/A   Clear
5:52 PM 78.8 °F 49.1 °F 35% 29.85 in 10.0 mi West 5.8 mph - N/A   Clear
6:12 PM 77.4 °F 50.4 °F 39% 29.86 in 10.0 mi NW 5.8 mph - N/A   Clear
6:33 PM 75.2 °F 50.9 °F 42% 29.86 in 10.0 mi NW 4.6 mph - N/A   Clear
6:52 PM 73.6 °F 51.6 °F 46% 29.86 in 10.0 mi NW 3.5 mph - N/A   Clear
7:12 PM 71.2 °F 52.0 °F 51% 29.86 in 10.0 mi NNW 3.5 mph - N/A   Clear
7:32 PM 69.1 °F 52.5 °F 55% 29.87 in 10.0 mi North 4.6 mph - N/A   Clear
7:52 PM 68.2 °F 52.9 °F 58% 29.88 in 10.0 mi Calm Calm - N/A   Clear
8:12 PM 67.6 °F 52.9 °F 59% 29.88 in 10.0 mi Calm Calm - N/A   Clear
8:32 PM 66.4 °F 53.6 °F 63% 29.89 in 10.0 mi Calm Calm - N/A   Clear
8:52 PM 63.9 °F 52.9 °F 67% 29.89 in 10.0 mi Calm Calm - N/A   Clear
9:12 PM 62.4 °F 54.3 °F 75% 29.89 in 10.0 mi Calm Calm - N/A   Clear
9:32 PM 65.1 °F 52.7 °F 64% 29.90 in 10.0 mi North 6.9 mph - N/A   Clear
9:52 PM 64.9 °F 52.7 °F 64% 29.90 in 10.0 mi NNE 4.6 mph - N/A   Clear
10:12 PM 63.1 °F 52.7 °F 69% 29.91 in 10.0 mi North 4.6 mph - N/A   Clear
10:32 PM 65.3 °F 49.8 °F 57% 29.92 in 10.0 mi North 6.9 mph - N/A   Clear
10:52 PM 65.3 °F 46.4 °F 50% 29.92 in 10.0 mi North 8.1 mph - N/A   Clear
11:12 PM 65.8 °F 44.8 °F 47% 29.93 in 10.0 mi North 8.1 mph - N/A   Clear
11:32 PM 66.0 °F 43.2 °F 43% 29.93 in 10.0 mi North 10.4 mph - N/A   Clear
11:52 PM 65.3 °F 42.1 °F 43% 29.93 in 10.0 mi North 9.2 mph - N/A   Clear